Home > Weather > Kerman > Past weeks

Flag for Iran Past Weather in Kerman, Iran — Yesterday and Last 2 Weeks

Now
81 °F

Sunny.


Feels Like: 78 °F
Forecast: 57 / 90 °F
Wind: 5 mph from North

Location: Kerman Airport

Current Time: Jun 26, 2016 at 9:20:17 AM

Latest Report: Jun 26, 2016 at 8:30 AM


Visibility: 10 mi

Pressure: 30.09 "Hg (24.62 "Hg at 1762m altitude)

Humidity: 7%

Dew Point: 10 °F

Location of KermanLocation

Past Weather in Kerman — Graph

°F

Kerman Temperature Yesterday

Maximum temperature yesterday: 93 °F (at 4:30 PM)
Minimum temperature yesterday: 55 °F (at 6:22 AM)
Average temperature yesterday: 78 °F

High & Low Weather Summary for the Past Weeks

 TemperatureHumidityPressure
High99 °F (Jun 12, 2:30 PM)29% (Jun 15, 5:30 AM)30.15 "Hg (Jun 15, 5:30 AM)
Low55 °F (Jun 25, 6:22 AM)1% (Jun 11, 1:30 PM)29.83 "Hg (Jun 13, 2:30 PM)
Average80 °F10%30.02 "Hg
* Reported Jun 11 7:30 AM — Jun 26 7:30 AM, Kerman, Weather by CustomWeather, © 2016

Note: Actual official high and low records may vary slightly from our data, if they occured in-between our weather recording intervals... More about our weather records

Advertising

Kerman Weather History for the Previous 24 Hours

Scroll right to see more
 ConditionsComfort  
Time TempWeatherWind HumidityBarometerVisibility
7:30 AM
Sun, Jun 26
64 °FSunny.7 mph14%30.09 "Hg10 mi
6:30 AM59 °FClear.7 mph18%30.07 "Hg10 mi
5:30 AM63 °FClear.5 mph14%30.07 "Hg10 mi
4:20 AM61 °FClear.5 mph16%30.07 "Hg10 mi
3:30 AM61 °FClear.7 mph16%30.07 "Hg10 mi
2:30 AM63 °FClear.7 mph13%30.04 "Hg10 mi
1:30 AM72 °FClear.5 mph10%30.07 "Hg10 mi
12:30 AM72 °FClear.5 mph9%30.07 "Hg10 mi
11:30 PM
Sat, Jun 25
75 °FClear.12 mph7%30.07 "Hg10 mi
10:30 PM77 °FClear.9 mph6%30.07 "Hg10 mi
9:30 PM77 °FClear.5 mph5%30.04 "Hg10 mi
8:30 PM82 °FSunny.9 mph6%30.01 "Hg10 mi
7:30 PM88 °FSunny.9 mph5%30.01 "Hg10 mi
6:30 PM91 °FSunny.12 mph4%29.98 "Hg10 mi
5:30 PM91 °FSunny.16 mph4%29.98 "Hg10 mi
4:30 PM93 °FSunny.14 mph4%29.98 "Hg10 mi
3:30 PM91 °FSunny.12 mph4%29.98 "Hg10 mi
3:00 PM91 °FSunny.12 mph4%30.01 "Hg10 mi
2:30 PM91 °FSunny.12 mph4%30.01 "Hg10 mi
1:30 PM90 °FSunny.7 mph4%30.04 "Hg10 mi
12:30 PM86 °FSunny.7 mph4%30.04 "Hg10 mi
11:30 AM84 °FSunny.5 mph4%30.07 "Hg10 mi
10:30 AM82 °FSunny.No wind4%30.07 "Hg10 mi
9:20 AM79 °FSunny.No wind6%30.07 "Hg10 mi
Weather by CustomWeather, © 2016

See weather overviewHow to use our weather pages